Location: Unspecified
(44.0704°N, 88.6889°W)
Time: 21:06:25
(UTC+02:00)

deb Explorer IX - Pass Details

Date: 16 June 2019
Orbit: 539 x 1112 km, 38.8° (Epoch: 19 July)

Event Time Altitude Azimuth Distance (km) Brightness Sun altitude
Rises 06:02:38 0° 271° (W) 3,557 ? -17.8°
Reaches altitude 10° 06:06:38 10° 249° (WSW) 2,475 ? -18.1°
Maximum altitude 06:09:34 14° 218° (SW) 2,087 ? -18.4°
Enters shadow 06:10:12 14° 211° (SSW) 2,079 ? -18.4°
